EW7755 Weather Reports


Display with metric or nautical units.
time (UTC)temp
F
wind
direction
speed
MPH
gust
MPH
rain 1hr
in
rain 24hr
in
rain mn
in
humidity
%
barometer
mb
20260504220707 70 54 15.0 29.0 0.00 0.00 0.00 28 1005.3
20260504220206 70 34 18.0 31.0 0.00 0.00 0.00 28 1005.1
20260504215704 70 10 18.0 32.0 0.00 0.00 0.00 29 1005.1
20260504215204 70 28 19.0 35.0 0.00 0.00 0.00 29 1005.1
20260504214703 70 11 22.0 35.0 0.00 0.00 0.00 29 1005.1
20260504214203 71 34 22.0 39.0 0.00 0.00 0.00 27 1004.7
20260504213702 73 14 27.0 39.0 0.00 0.00 0.00 26 1004.4
20260504213203 74 17 17.0 26.0 0.00 0.00 0.00 22 1004.5
20260504212703 75 38 8.0 21.0 0.00 0.00 0.00 19 1004.5
20260504212203 76 0 12.0 19.0 0.00 0.00 0.00 19 1004.5
20260504211924 77 344 10.0 18.0 0.00 0.00 0.00 20 1004.4
20260504211204 78 24 12.0 18.0 0.00 0.00 0.00 19 1004.4
20260504210703 77 24 14.0 18.0 0.00 0.00 0.00 19 1004.4
20260504210429 76 35 3.0 14.0 0.00 0.00 0.00 18 1004.5
20260504205702 78 71 3.0 12.0 0.00 0.00 0.00 17 1004.5
20260504205202 79 0 8.0 11.0 0.00 0.00 0.00 17 1004.5
20260504204702 79 30 5.0 13.0 0.00 0.00 0.00 17 1004.5
20260504204203 79 6 9.0 13.0 0.00 0.00 0.00 18 1004.6
20260504203703 79 28 5.0 13.0 0.00 0.00 0.00 17 1004.7
20260504203202 79 344 6.0 13.0 0.00 0.00 0.00 17 1004.8
20260504202703 79 343 4.0 12.0 0.00 0.00 0.00 18 1004.8
20260504202202 79 334 4.0 12.0 0.00 0.00 0.00 17 1004.8
20260504201703 80 24 5.0 9.0 0.00 0.00 0.00 16 1004.8
20260504201202 80 158 1.0 12.0 0.00 0.00 0.00 17 1005.1
20260504200703 80 230 7.0 12.0 0.00 0.00 0.00 18 1005.2
20260504200203 80 188 6.0 10.0 0.00 0.00 0.00 18 1005.1
20260504195703 79 217 7.0 10.0 0.00 0.00 0.00 18 1005.2
20260504195203 80 290 4.0 6.0 0.00 0.00 0.00 18 1005.3
20260504194202 78 189 2.0 4.0 0.00 0.00 0.00 19 1005.4
20260504193704 77 0 1.0 9.0 0.00 0.00 0.00 19 1005.5
20260504193202 77 0 3.0 11.0 0.00 0.00 0.00 19 1005.6
20260504192703 78 266 6.0 11.0 0.00 0.00 0.00 19 1005.7
20260504192203 77 238 4.0 9.0 0.00 0.00 0.00 20 1005.6
20260504191920 76 251 2.0 9.0 0.00 0.00 0.00 20 1005.7
20260504191433 76 0 6.0 10.0 0.00 0.00 0.00 19 1005.7
20260504190703 77 300 3.0 10.0 0.00 0.00 0.00 19 1006.0
20260504190204 78 319 5.0 11.0 0.00 0.00 0.00 19 1006.0
20260504185703 77 341 8.0 11.0 0.00 0.00 0.00 21 1006.0
20260504185203 78 299 3.0 10.0 0.00 0.00 0.00 18 1006.0
20260504184703 77 281 5.0 11.0 0.00 0.00 0.00 19 1006.1
20260504184202 77 317 6.0 11.0 0.00 0.00 0.00 18 1006.2
20260504183702 76 247 5.0 10.0 0.00 0.00 0.00 20 1006.3
20260504182702 75 345 7.0 11.0 0.00 0.00 0.00 21 1006.4
20260504182202 75 0 5.0 9.0 0.00 0.00 0.00 23 1006.4
20260504181702 76 0 3.0 10.0 0.00 0.00 0.00 20 1006.4
20260504181202 76 237 5.0 10.0 0.00 0.00 0.00 21 1006.5
20260504180702 76 235 6.0 9.0 0.00 0.00 0.00 20 1006.5
20260504180202 74 86 1.0 4.0 0.00 0.00 0.00 21 1006.7
20260504175702 73 16 2.0 4.0 0.00 0.00 0.00 21 1006.8
20260504175202 72 157 2.0 6.0 0.00 0.00 0.00 22 1006.8
20260504174703 73 62 3.0 9.0 0.00 0.00 0.00 22 1006.9
20260504174422 72 16 6.0 9.0 0.00 0.00 0.00 23 1006.9
20260504173704 73 354 6.0 7.0 0.00 0.00 0.00 23 1006.9
20260504173201 74 62 2.0 3.0 0.00 0.00 0.00 23 1007.0
20260504172702 75 155 1.0 5.0 0.00 0.00 0.00 23 1007.0
20260504172201 75 220 4.0 5.0 0.00 0.00 0.00 24 1007.0
20260504171704 72 200 3.0 4.0 0.00 0.00 0.00 23 1007.1
20260504171202 71 162 2.0 4.0 0.00 0.00 0.00 26 1007.1
20260504170702 71 120 2.0 4.0 0.00 0.00 0.00 26 1007.3
20260504170202 70 147 1.0 4.0 0.00 0.00 0.00 27 1007.3
20260504160409 65 266 9.0 15.0 0.00 0.00 0.00 37 1007.5
20260504151147 58 285 9.0 16.0 0.00 0.00 0.00 43 1007.6
20260504150646 58 243 10.0 15.0 0.00 0.00 0.00 45 1007.6
20260504150147 57 245 9.0 13.0 0.00 0.00 0.00 46 1007.6
20260504141134 53 261 8.0 17.0 0.00 0.00 0.00 50 1007.6
20260504140635 53 275 9.0 16.0 0.00 0.00 0.00 51 1007.7
20260504140132 52 314 6.0 18.0 0.00 0.00 0.00 52 1007.6
20260504130631 46 244 11.0 18.0 0.00 0.00 0.00 63 1007.2
20260504130131 45 247 10.0 18.0 0.00 0.00 0.00 64 1007.2
20260504120128 45 255 12.0 20.0 0.00 0.00 0.00 59 1007.0
20260504110628 45 237 12.0 15.0 0.00 0.00 0.00 61 1006.7
20260504110349 45 235 13.0 15.0 0.00 0.00 0.00 61 1006.7
20260504100125 46 254 10.0 15.0 0.00 0.00 0.00 59 1007.0
20260504090125 48 258 7.0 11.0 0.00 0.00 0.00 53 1007.5
20260504081622 49 182 7.0 10.0 0.00 0.00 0.00 51 1007.6
20260504081116 49 195 6.0 10.0 0.00 0.00 0.00 50 1007.6
20260504080617 49 188 6.0 9.0 0.00 0.00 0.00 51 1007.6
20260504080113 49 185 6.0 11.0 0.00 0.00 0.00 51 1007.6
20260504070104 51 106 4.0 5.0 0.00 0.00 0.00 45 1008.5
20260504060104 54 94 5.0 10.0 0.00 0.00 0.00 41 1008.8
20260504050552 56 157 4.0 13.0 0.00 0.00 0.00 40 1009.1
20260504045552 56 182 6.0 15.0 0.00 0.00 0.00 40 1009.1
20260504045052 56 168 9.0 14.0 0.00 0.00 0.00 40 1009.1
20260504044551 56 192 7.0 14.0 0.00 0.00 0.00 40 1009.1
20260504044051 56 189 7.0 14.0 0.00 0.00 0.00 40 1009.1
20260504043821 56 175 9.0 13.0 0.00 0.00 0.00 39 1009.3
20260504042546 57 169 7.0 11.0 0.00 0.00 0.00 39 1009.2
20260504042314 57 159 6.0 13.0 0.00 0.00 0.00 39 1009.3
20260504041546 57 182 7.0 13.0 0.00 0.00 0.00 39 1009.4
20260504041043 57 158 7.0 12.0 0.00 0.00 0.00 38 1009.4
20260504040539 58 192 7.0 12.0 0.00 0.00 0.00 39 1009.5
20260504040041 58 179 6.0 10.0 0.00 0.00 0.00 38 1009.5
20260504035540 58 168 5.0 10.0 0.00 0.00 0.00 38 1009.6
20260504035037 58 138 4.0 10.0 0.00 0.00 0.00 38 1009.5
20260504034533 59 133 5.0 10.0 0.00 0.00 0.00 37 1009.5
20260504034031 59 172 4.0 10.0 0.00 0.00 0.00 37 1009.6
20260504033531 59 169 3.0 6.0 0.00 0.00 0.00 36 1009.5
20260504033031 60 157 3.0 6.0 0.00 0.00 0.00 36 1009.4
20260504032530 60 149 3.0 10.0 0.00 0.00 0.00 36 1009.4
20260504032031 60 138 6.0 10.0 0.00 0.00 0.00 36 1009.5
20260504031528 60 137 6.0 7.0 0.00 0.00 0.00 35 1009.4
20260504031250 60 120 5.0 7.0 0.00 0.00 0.00 35 1009.5
20260504030524 61 123 6.0 12.0 0.00 0.00 0.00 35 1009.5
20260504030022 61 113 9.0 13.0 0.00 0.00 0.00 34 1009.4
20260504025518 61 103 10.0 13.0 0.00 0.00 0.00 34 1009.5
20260504025019 61 113 11.0 13.0 0.00 0.00 0.00 34 1009.4
20260504024519 62 104 9.0 10.0 0.00 0.00 0.00 34 1009.3
20260504024016 62 120 6.0 9.0 0.00 0.00 0.00 34 1009.3
20260504023517 62 113 7.0 10.0 0.00 0.00 0.00 34 1009.3
20260504023015 63 131 6.0 10.0 0.00 0.00 0.00 33 1009.4
20260504022515 63 121 6.0 9.0 0.00 0.00 0.00 33 1009.5
20260504022017 63 116 6.0 9.0 0.00 0.00 0.00 32 1009.5
20260504021747 63 100 6.0 10.0 0.00 0.00 0.00 31 1009.4
20260504021017 64 102 6.0 10.0 0.00 0.00 0.00 31 1009.3
20260504020516 64 103 6.0 9.0 0.00 0.00 0.00 31 1009.3
20260504020243 64 103 6.0 9.0 0.00 0.00 0.00 31 1009.4
20260504015514 65 110 7.0 9.0 0.00 0.00 0.00 31 1009.2
20260504015016 65 111 6.0 7.0 0.00 0.00 0.00 31 1009.2
20260504014516 65 111 7.0 9.0 0.00 0.00 0.00 30 1009.3
20260504014014 65 107 6.0 9.0 0.00 0.00 0.00 29 1009.2
20260504013515 65 103 6.0 7.0 0.00 0.00 0.00 29 1009.2
20260504013014 65 94 6.0 9.0 0.00 0.00 0.00 29 1009.2
20260504012514 65 85 6.0 10.0 0.00 0.00 0.00 28 1009.2
20260504011515 66 73 6.0 7.0 0.00 0.00 0.00 26 1009.2
20260504010513 68 82 4.0 6.0 0.00 0.00 0.00 25 1009.3
20260504010015 69 63 4.0 6.0 0.00 0.00 0.00 23 1009.3
20260504005515 70 7 2.0 6.0 0.00 0.00 0.00 22 1009.3
20260504005232 71 0 5.0 6.0 0.00 0.00 0.00 22 1009.2
20260504004510 71 27 4.0 7.0 0.00 0.00 0.00 21 1009.3
20260504004005 71 0 6.0 7.0 0.00 0.00 0.00 21 1009.3
20260504003506 72 21 2.0 6.0 0.00 0.00 0.00 22 1009.4
20260504003229 72 27 3.0 6.0 0.00 0.00 0.00 21 1009.4
20260504002506 72 0 4.0 6.0 0.00 0.00 0.00 21 1009.4
20260504002004 71 3 4.0 6.0 0.00 0.00 0.00 22 1009.4
20260504001732 71 18 2.0 3.0 0.00 0.00 0.00 21 1009.5
20260504001004 71 18 2.0 4.0 0.00 0.00 0.00 21 1009.5
20260504000504 71 56 2.0 4.0 0.00 0.00 0.00 20 1009.5
20260504000004 71 38 1.0 6.0 0.00 0.00 0.00 20 1009.5
20260503235503 71 3 3.0 7.0 0.00 0.00 0.00 20 1009.6
20260503235004 72 350 4.0 9.0 0.00 0.00 0.00 20 1009.6
20260503234504 73 0 6.0 9.0 0.00 0.00 0.00 20 1009.8
20260503234233 74 30 5.0 10.0 0.00 0.00 0.00 21 1009.8
20260503233502 74 353 6.0 11.0 0.00 0.00 0.00 20 1009.6
20260503233219 74 17 7.0 11.0 0.00 0.00 0.00 20 1009.6
20260503232504 74 355 7.0 10.0 0.00 0.00 0.00 20 1009.8
20260503232004 73 0 6.0 10.0 0.00 0.00 0.00 21 1009.8
20260503231502 73 1 5.0 9.0 0.00 0.00 0.00 21 1009.9
20260503231228 73 355 6.0 9.0 0.00 0.00 0.00 21 1009.9
20260503230504 73 62 3.0 7.0 0.00 0.00 0.00 20 1009.8
20260503230009 72 83 3.0 7.0 0.00 0.00 0.00 20 1009.9
20260503225503 72 25 3.0 9.0 0.00 0.00 0.00 21 1009.8
20260503225004 72 51 4.0 11.0 0.00 0.00 0.00 21 1009.9
20260503224222 72 20 5.0 10.0 0.00 0.00 0.00 22 1010.0
20260503223004 73 37 6.0 9.0 0.00 0.00 0.00 19 1010.0
20260503222502 75 1 5.0 9.0 0.00 0.00 0.00 18 1010.0
20260503222004 76 37 5.0 7.0 0.00 0.00 0.00 18 1010.1
20260503221501 75 203 2.0 5.0 0.00 0.00 0.00 19 1010.1